カタログに戻る

STARLINK-31353

運用中通信VLEO
NORAD 58980·PAYLOAD·🇺🇸 United States

打ち上げ Feb 15, 2024 から Vandenberg Space Force Base

Loading…

次のパス (今後24時間)

TLE

最新Source: CelesTrak SupGP

元期: Sep 14, 2026, 22:33 UTC

1 58980C 24031R   26257.94006944 -.00037265  00000+0 -11011-2 0  2575
2 58980  53.1574 135.6119 0001315  79.3787  40.5655 15.34404929    11

AllMySatでSTARLINK-31353をリアルタイム追跡

Download on the App Store